Location: Sobotiste
(48.7170°N, 17.4000°E)
Time: 09:56:10
(UTC+02:00)

YUBILEINY - Pass Details

Date: 13 March 2026
Orbit: 1477 x 1509 km, 82.5° (Epoch: 17 April)

Event Time Altitude Azimuth Distance (km) Brightness Sun altitude
Rises 01:40:16 0° 351° (N) 4,627 ? -39.5°
Reaches altitude 10° 01:43:45 10° 3° (N) 3,639 ? -39.2°
Maximum altitude 01:51:07 29° 61° (ENE) 2,452 ? -38.5°
Drops below altitude 10° 01:58:24 10° 119° (ESE) 3,612 ? -37.7°
Sets 02:01:48 0° 130° (SE) 4,587 ? -37.4°
